CZ-6A DEB, 54611

Orbit data source: Space-Track

CZ-6A DEB, 54611 is space debris in SSO originally from a launch on Fri, 11 Nov 2022 UTC launched from the Taiyaun Space Center, China (TSC). Debris objects in space refer to the collection of defunct objects orbiting the Earth. Examples of debris include non-operational satellites, rocket bodies, and fragments generated from explosions, collisions, or faulty payload assembly.

Loading next visibility...
Identifier
54611, 2022-151NM
Orbit
SSO
Country
Flag of CNCN / PRC
Related business
Manufacturer
SAST
Mission
Spacecraft
Bus & Motor
Unknown
Mass
Unknown
Launch date (UTC)
2022-11-11 (4 years ago)
Launch vehicle
Unknown
Launch site
Taiyaun Space Center, China (TSC)
Object type
Payload
Rocket body
Debris
Shape & HBR
Unknown shape, 0.1 m
Radar Cross Section
Medium (>0.1 m² and <1 m²)

Expand to show TLE details & history
Last TLE update: 2 days ago

TLE from 2 days ago
0 CZ-6A DEB
1 54611U 22151NM  26171.26579350  .00049956  00000-0  30548-2 0  9997
2 54611  98.6035 270.3158 0047944 149.2139 211.1915 15.09089916192328
Epoch: 2026-06-20T06:22Z
TLE epoch observation values (Epoch: 2026-06-20T06:22:44.558Z)
Latitude
0.00004°
Longitude
-93.85275°
Altitude
570.436 km
Speed
7.56 km/s
True Right ascension
18h 01m 15s
True Declination
0° 00' 00"
Sunlit
Object was in full shadow at epoch
Visualization orbit readout
Latitude
Unknown
Longitude
Unknown
Altitude
Unknown
Speed
Unknown
Apparent Right ascension
Unknown
Apparent Declination
Unknown
Sunlit
N/A
Visualization observer readout
Local Sidereal Time
21:34:41
Azimuth
Unknown
Elevation
Unknown
Doppler factor
Unknown
Orbital elements
Apogee altitude
569.164 km
Perigee altitude
502.866 km
Semi-major axis
6,914.152 km
Eccentricity
0.00479
Inclination
98.6035°
RAAN
270.3158°
Arg. of periapsis
149.2139°
True anomaly
210.90842°
Mean anomaly
211.1915°
Eccentric anomaly
211.04981°
Mean motion
3.77516 °/min
Orbital period
95.36 mins
BSTAR
0.0030548
Loading maneuver chart data...
Computing Atmospheric mass density...
Loading historical data...
Loading historical data...
Loading historical data...
Loading historical data...
Loading historical data...
Loading historical data...
Loading historical data...

Documentation

Showing up to 5 results
|